Showing default

ADS-01, 62006

Orbit data source: Space-Track

ADS-01, 62006 is a payload satellite owned by SingTel Optus (AU) in GEO that was launched on Sun, 17 Nov 2024 UTC via an FALCON 9 launch vehicle from the Air Force Eastern Test Range (AFETR). Payload-class satellites include a variety of spacecraft equipped with specific instruments for various scientific and technological missions. These include communications satellites like Starlink; space stations such as the ISS; scientific satellites like the Hubble; Earth observation satellites from companies like Planet Labs, Umbra, and HawkEye 360; GPS; miniature CubeSats for education and research; and military/defense satellites.

Not visible in the next 10 days
Identifier
62006, 2024-212A
Orbit
GEO
Country
Flag of AUAU / AUS
Related business
Manufacturer
ADST/ADSUK
Mission
Operational Defense Communications
Bus & Motor
EUROSTAR 3000EOR, XPS/PPS-5000
Mass
~4,000 kg wet, ~2,000 kg dry
Launch date (UTC)
2024-11-17 (1 year ago)
Launch vehicle
FALCON 9
Launch site
Air Force Eastern Test Range (AFETR)
Object type
Payload
Rocket body
Debris
Shape & HBR
Box + 2 Pan, 19.0 m
Radar Cross Section
39.423 m²

Expand to show TLE details & history
Last TLE update: 7 hours ago

TLE from 7 hours ago
0 ADS-01
1 62006U 24212A   26061.82892068 -.00000160  00000-0  00000+0 0  9990
2 62006   0.0358 273.9019 0001114  65.9937 275.5183  1.00272553  4694
Epoch: 2026-03-02T19:53Z
TLE epoch observation values (Epoch: 2026-03-02T19:53:38.746Z)
Latitude
0.01697°
Longitude
156.40946°
Altitude
35,785.409 km
Speed
3.075 km/s
True Right ascension
17h 01m 45s
True Declination
0° 01' 01"
Sunlit
Object was in daylight at epoch
Visualization orbit readout
Latitude
Unknown
Longitude
Unknown
Altitude
Unknown
Speed
Unknown
Apparent Right ascension
Unknown
Apparent Declination
Unknown
Sunlit
N/A
Visualization observer readout
Local Sidereal Time
06:56:50
Azimuth
Unknown
Elevation
Unknown
Doppler factor
Unknown
Orbital elements
Apogee altitude
35,792.147 km
Perigee altitude
35,782.753 km
Semi-major axis
42,165.587 km
Eccentricity
0.00011
Inclination
0.0358°
RAAN
273.9019°
Arg. of periapsis
65.9937°
True anomaly
275.50559°
Mean anomaly
275.5183°
Eccentric anomaly
275.51195°
Mean motion
0.25067 °/min
Orbital period
1,436.14 mins
BSTAR
0
Loading maneuver chart data...
Computing Atmospheric mass density...
Loading historical data...
Loading historical data...
Loading historical data...
Loading historical data...
Loading historical data...
Loading historical data...
Loading historical data...
Other satellites on launch #212 in the year 2024 (2024-11-17 UTC)

Documentation

Showing up to 5 results
|